Terminal Aerodrome Forecast
Issued by NWS Cleveland, OH

Home | Current Version | Previous Version | Graphics & Text | Print | Product List | Glossary On
Versions: 1 2 3 4 5 6 7 8 9 10 11 12 13 14 15 16 17 18 19 20
000
FTUS41 KCLE 172000 AAA
TAFCAK
TAF AMD
KCAK 172002Z 1720/1818 02003KT P6SM SCT025 BKN070
      TEMPO 1720/1723 BKN025
     FM180000 06004KT P6SM SCT060
      TEMPO 1809/1813 3SM BR
     FM181300 09005KT P6SM BKN040=

USA.gov is the U.S. government's official web portal to all federal, state and local government web resources and services.